This is the latest recevied weather packets stored in our database for station/object DL3NDS-WX. If no packets are shown the sender has not sent any weather packets the latest 1 day(s).
| Time | Temp. | Humidity | Pressure | Rain* | Wind** | Luminosity | Snow |
|---|---|---|---|---|---|---|---|
| 1777979540 | 20.56° C | 58% | 1009 hPa | 0 mm | 0.89 m/s, 49° | 610 W/m² | - |
| 1777979476 | 20° C | 58% | 1008.9 hPa | 0 mm | 0.45 m/s, 49° | 599 W/m² | - |
| 1777979417 | 20° C | 59% | 1009 hPa | 0 mm | 0.45 m/s, 14° | 315 W/m² | - |
| 1777979356 | 20° C | 58% | 1008.9 hPa | 0 mm | 0 m/s | 274 W/m² | - |
| 1777979294 | 20° C | 59% | 1008.9 hPa | 0 mm | 0 m/s | 255 W/m² | - |
| 1777979235 | 20° C | 58% | 1009 hPa | 0 mm | 0.45 m/s, 28° | 246 W/m² | - |
| 1777979173 | 20° C | 58% | 1009 hPa | 0 mm | 0.89 m/s, 29° | 239 W/m² | - |
| 1777979114 | 20° C | 58% | 1009 hPa | 0 mm | 1.34 m/s, 29° | 229 W/m² | - |
| 1777979051 | 20° C | 58% | 1009 hPa | 0 mm | 1.34 m/s, 28° | 229 W/m² | - |
| 1777978989 | 20° C | 58% | 1009 hPa | 0 mm | 0.89 m/s, 24° | 227 W/m² | - |
| 1777978928 | 20.56° C | 59% | 1009 hPa | 0 mm | 1.79 m/s, 25° | 225 W/m² | - |
| 1777978871 | 20.56° C | 58% | 1009 hPa | 0 mm | 0.89 m/s, 35° | 234 W/m² | - |
| 1777978809 | 20.56° C | 59% | 1009 hPa | 0 mm | 0.45 m/s, 64° | 251 W/m² | - |
| 1777978744 | 20.56° C | 60% | 1009 hPa | 0 mm | 0.45 m/s, 76° | 253 W/m² | - |
| 1777978682 | 20.56° C | 59% | 1009 hPa | 0 mm | 0.45 m/s, 6° | 262 W/m² | - |
| 1777978621 | 20.56° C | 58% | 1009 hPa | 0 mm | 0.45 m/s, 26° | 258 W/m² | - |
| 1777978565 | 20.56° C | 59% | 1009 hPa | 0 mm | 1.34 m/s, 331° | 258 W/m² | - |
| 1777978498 | 20.56° C | 58% | 1009 hPa | 0 mm | 1.79 m/s, 328° | 234 W/m² | - |
| 1777978435 | 21.11° C | 57% | 1009 hPa | 0 mm | 0.89 m/s, 322° | 220 W/m² | - |
| 1777978383 | 21.11° C | 59% | 1009 hPa | 0 mm | 0.45 m/s, 329° | 223 W/m² | - |
| 1777978314 | 21.11° C | 59% | 1009.1 hPa | 0 mm | 0.89 m/s, 357° | 236 W/m² | - |
| 1777978253 | 21.11° C | 59% | 1009 hPa | 0 mm | 0.89 m/s, 321° | 241 W/m² | - |
| 1777978192 | 21.67° C | 58% | 1009 hPa | 0 mm | 0.89 m/s, 330° | 251 W/m² | - |
| 1777978131 | 21.67° C | 58% | 1009.1 hPa | 0 mm | 1.79 m/s, 10° | 264 W/m² | - |
| 1777978067 | 21.67° C | 57% | 1009.1 hPa | 0 mm | 1.79 m/s, 37° | 276 W/m² | - |
* Rain latest hour (hover to see other rain measurements)
** Current wind speed in m/s (hover to see current wind gust speed)